Weather reports worldwide

Advertisment
Neuburg/Donau, Germany (10853): temperature & dewpoint: 10.09.2019 17:00:00 - 16.09.2019 17:00:00 (CEST)Neuburg/Donau, Germany (10853): wind speed: 10.09.2019 17:00:00 - 16.09.2019 17:00:00 (CEST)Neuburg/Donau, Germany (10853): wind direction: 10.09.2019 17:00:00 - 16.09.2019 17:00:00 (CEST)Neuburg/Donau, Germany (10853): reduced air pressure: 10.09.2019 17:00:00 - 16.09.2019 17:00:00 (CEST)Neuburg/Donau, Germany (10853): visibility: 10.09.2019 17:00:00 - 16.09.2019 17:00:00 (CEST)
Date & Time tt [°C] td [°C] ff [km/h] ff [kn] dd ppp [hPa] vv [km]
16.09.2019 17:00:00 24,4 14,1 11 6 W 1016,1 10
16.09.2019 16:00:00 24,7 13,2 11 6 W 1016,5 40
16.09.2019 15:00:00 24,4 13,4 11 6 W 1017,3 40
16.09.2019 14:00:00 24,6 13,1 14 8 WSW 1017,9 35
16.09.2019 13:00:00 23,3 12,6 7 4 SW 1018,5 35
16.09.2019 12:00:00 21,9 13,9 4 2 S 1019,1 35
16.09.2019 11:00:00 19,5 14,4 7 4 SSE 1019,9 35
16.09.2019 10:00:00 17,5 13,6 7 4 W 1020,7 20
16.09.2019 09:00:00 15,4 14,3 9 5 W 1020,9 8
16.09.2019 08:00:00 10,3 10,1 0 0 N 1021,6 0,8
16.09.2019 07:00:00 8,3 8,0 4 2 SW 1022,0 0,1
16.09.2019 06:00:00 10,0 9,6 2 1 E 1021,8 0,5
16.09.2019 05:00:00 10,5 10,2 4 2 SE 1022,3 35
16.09.2019 04:00:00 11,0 10,6 0 0 N 1022,2 35
16.09.2019 03:00:00 11,5 11,0 4 2 ESE 1022,4 35
16.09.2019 02:00:00 12,9 12,3 4 2 SW 1022,4 35
16.09.2019 01:00:00 13,4 12,4 4 2 S 1022,4 35
16.09.2019 00:00:00 14,1 12,9 4 2 S 1022,4 40
15.09.2019 23:00:00 14,7 13,5 4 2 N 1022,1 40
15.09.2019 22:00:00 15,8 13,9 4 2 WSW 1021,8 40
15.09.2019 21:00:00 18,0 14,3 4 2 W 1021,0 40
15.09.2019 20:00:00 20,6 15,3 4 2 WSW 1020,4 45
15.09.2019 19:00:00 24,9 15,3 4 2 WNW 1019,8 50
15.09.2019 18:00:00 26,0 15,1 7 4 W 1019,9 40
15.09.2019 17:00:00 25,5 15,1 11 6 W 1020,6 40
15.09.2019 16:00:00 24,9 14,2 11 6 SW 1021,3 40
15.09.2019 15:00:00 24,4 13,7 14 8 SW 1022,1 40
15.09.2019 14:00:00 23,5 14,3 11 6 WSW 1023,0 30
15.09.2019 13:00:00 22,0 15,8 7 4 SSW 1023,9 18
15.09.2019 12:00:00 18,5 14,9 4 2 - 1025,1 8
15.09.2019 11:00:00 13,8 13,5 4 2 SE 1026,4 0,5
15.09.2019 10:00:00 12,8 12,5 4 2 N 1026,7 0,2
15.09.2019 09:00:00 12,0 11,8 4 2 ESE 1026,8 0,2
15.09.2019 08:00:00 8,4 8,2 4 2 SSE 1027,3 0,2
15.09.2019 07:00:00 7,3 7,0 0 0 N 1027,5 0,3
15.09.2019 06:00:00 8,3 7,9 0 0 N 1027,7 0,4
15.09.2019 05:00:00 10,8 10,4 0 0 N 1027,3 15
15.09.2019 04:00:00 11,4 11,0 4 2 NNE 1027,6 15
15.09.2019 03:00:00 12,0 11,4 0 0 N 1027,8 30
15.09.2019 02:00:00 12,7 11,8 4 2 N 1028,1 50
15.09.2019 01:00:00 13,3 12,5 4 2 N 1028,2 50
15.09.2019 00:00:00 14,1 13,0 4 2 NNE 1028,7 50
14.09.2019 23:00:00 14,8 13,3 4 2 N 1028,8 50
14.09.2019 22:00:00 15,7 13,5 7 4 N 1028,6 50
14.09.2019 21:00:00 17,4 13,7 4 2 ENE 1028,2 50
14.09.2019 20:00:00 18,8 13,5 7 4 ENE 1027,9 50
14.09.2019 19:00:00 21,8 13,1 4 2 ENE 1027,3 50
14.09.2019 18:00:00 22,5 13,2 7 4 ENE 1027,1 50
14.09.2019 17:00:00 24,1 12,2 7 4 E 1027,0 50
14.09.2019 16:00:00 24,0 11,9 4 2 N 1027,6 50
14.09.2019 15:00:00 22,5 13,6 7 4 ENE 1028,4 45
14.09.2019 14:00:00 22,4 12,7 7 4 E 1029,1 45
14.09.2019 13:00:00 21,9 13,9 7 4 E 1029,6 40
14.09.2019 12:00:00 20,7 14,4 11 6 E 1030,1 40
14.09.2019 11:00:00 18,5 13,9 14 8 E 1031,1 40
14.09.2019 10:00:00 18,0 13,7 7 4 NE 1031,2 40
14.09.2019 09:00:00 17,6 13,3 11 6 NE 1031,1 40
14.09.2019 08:00:00 16,0 13,6 4 2 NNE 1031,2 40
14.09.2019 07:00:00 16,1 13,3 7 4 NNE 1030,8 35
14.09.2019 06:00:00 16,6 14,0 7 4 N 1030,9 35
14.09.2019 05:00:00 16,4 14,0 7 4 N 1031,0 40
14.09.2019 04:00:00 16,9 14,3 4 2 N 1031,3 45
14.09.2019 03:00:00 16,7 14,1 4 2 N 1031,4 45
14.09.2019 02:00:00 16,4 14,1 4 2 NNW 1031,6 50
14.09.2019 01:00:00 18,0 14,2 4 2 NNE 1031,1 50
14.09.2019 00:00:00 18,4 14,2 4 2 NE 1031,3 50
13.09.2019 23:00:00 18,9 14,2 4 2 N 1031,4 50
13.09.2019 22:00:00 19,5 14,0 4 2 NNE 1031,0 50
13.09.2019 21:00:00 19,9 14,3 7 4 N 1030,7 50
13.09.2019 20:00:00 21,1 14,0 7 4 N 1030,1 55
13.09.2019 19:00:00 23,4 13,6 7 4 NNE 1029,4 55
13.09.2019 18:00:00 24,0 13,0 7 4 N 1029,2 60
13.09.2019 17:00:00 23,8 13,1 11 6 WNW 1029,5 60
13.09.2019 16:00:00 24,6 13,3 14 8 W 1029,6 60
13.09.2019 15:00:00 24,2 13,6 11 6 NW 1029,9 50
13.09.2019 14:00:00 23,3 14,2 11 6 NW 1030,5 45
13.09.2019 13:00:00 22,7 13,4 14 8 WSW 1030,7 40
13.09.2019 12:00:00 21,4 13,4 14 8 W 1031,1 40
13.09.2019 11:00:00 20,0 13,8 7 4 W 1031,3 35
13.09.2019 10:00:00 17,2 13,1 7 4 SW 1031,8 35
13.09.2019 09:00:00 15,4 12,6 7 4 WSW 1032,2 30
13.09.2019 08:00:00 13,1 12,3 4 2 N 1032,4 30
13.09.2019 07:00:00 10,5 9,8 7 4 SW 1032,6 30
13.09.2019 06:00:00 12,9 11,9 11 6 WSW 1032,0 35
13.09.2019 05:00:00 12,2 11,1 4 2 WSW 1032,0 40
13.09.2019 04:00:00 12,5 11,0 7 4 WSW 1032,0 40
13.09.2019 03:00:00 12,4 11,5 4 2 N 1032,1 40
13.09.2019 02:00:00 12,3 11,8 0 0 N 1032,1 40
13.09.2019 01:00:00 11,9 11,4 4 2 W 1032,2 40
13.09.2019 00:00:00 12,2 11,5 4 2 SSW 1032,2 50
12.09.2019 23:00:00 12,9 11,2 4 2 N 1032,0 50
12.09.2019 22:00:00 13,8 12,3 4 2 SSW 1031,5 50
12.09.2019 21:00:00 15,9 12,4 4 2 WSW 1030,9 50
12.09.2019 20:00:00 18,9 12,6 4 2 W 1030,1 60
12.09.2019 19:00:00 21,5 12,3 4 2 WNW 1029,4 60
12.09.2019 18:00:00 22,7 11,4 11 6 W 1029,1 60
12.09.2019 17:00:00 22,6 11,2 14 8 W 1029,3 60
12.09.2019 16:00:00 22,8 11,2 14 8 SW 1029,6 60
12.09.2019 15:00:00 22,4 10,9 22 12 WSW 1030,0 60
12.09.2019 14:00:00 22,4 10,1 14 8 W 1030,0 60
12.09.2019 13:00:00 21,2 9,5 11 6 WSW 1030,7 60
12.09.2019 12:00:00 19,4 11,3 14 8 W 1031,1 60
12.09.2019 11:00:00 19,3 11,1 14 8 W 1030,6 50
12.09.2019 10:00:00 17,0 10,8 11 6 WSW 1030,9 50
12.09.2019 09:00:00 15,1 11,4 4 2 N 1030,5 50
12.09.2019 08:00:00 14,2 11,1 4 2 N 1030,2 40
12.09.2019 07:00:00 13,4 10,8 4 2 S 1030,0 30
12.09.2019 06:00:00 13,5 10,6 7 4 S 1029,4 25
12.09.2019 05:00:00 13,8 10,4 4 2 WSW 1029,4 25
12.09.2019 04:00:00 12,9 10,8 4 2 SSW 1029,2 30
12.09.2019 03:00:00 13,4 10,3 4 2 SW 1028,9 30
12.09.2019 02:00:00 12,8 10,5 4 2 SW 1028,6 30
12.09.2019 01:00:00 12,8 10,7 4 2 W 1028,3 30
12.09.2019 00:00:00 13,3 10,4 7 4 W 1027,9 30
11.09.2019 23:00:00 11,2 9,9 4 2 WSW 1027,9 30
11.09.2019 22:00:00 12,6 10,3 4 2 W 1027,0 30
11.09.2019 21:00:00 14,0 10,2 4 2 W 1026,2 40
11.09.2019 20:00:00 17,0 10,0 4 2 WNW 1024,9 50
11.09.2019 19:00:00 19,5 8,2 7 4 WNW 1023,9 50
11.09.2019 18:00:00 20,8 7,0 7 4 SW 1023,4 50
11.09.2019 17:00:00 20,9 8,1 11 6 WSW 1023,0 50
11.09.2019 16:00:00 20,7 7,6 11 6 WSW 1023,0 50
11.09.2019 15:00:00 21,4 8,8 7 4 SW 1022,9 50
11.09.2019 14:00:00 19,9 7,6 4 2 ENE 1023,2 50
11.09.2019 13:00:00 19,6 7,4 7 4 ESE 1023,5 50
11.09.2019 12:00:00 18,1 8,4 4 2 WSW 1023,8 50
11.09.2019 11:00:00 15,7 7,9 4 2 WNW 1024,2 40
11.09.2019 10:00:00 13,6 9,3 4 2 NNW 1024,1 40
11.09.2019 09:00:00 8,2 7,7 4 2 W 1024,7 40
11.09.2019 08:00:00 6,8 6,4 4 2 SSW 1024,4 35
11.09.2019 07:00:00 6,9 6,5 4 2 WSW 1023,7 30
11.09.2019 06:00:00 7,0 6,5 4 2 SW 1023,0 15
11.09.2019 05:00:00 7,2 6,8 4 2 WSW 1022,6 6
11.09.2019 04:00:00 7,4 6,9 4 2 W 1022,6 15
11.09.2019 03:00:00 7,9 7,4 4 2 NNW 1022,6 20
11.09.2019 02:00:00 8,3 7,7 4 2 N 1022,3 25
11.09.2019 01:00:00 8,5 7,8 2 1 NNW 1021,9 2,5
11.09.2019 00:00:00 9,1 8,3 0 0 N 1021,8 25
10.09.2019 23:00:00 10,4 8,9 4 2 N 1021,7 25
10.09.2019 22:00:00 11,2 9,6 4 2 N 1021,2 30
10.09.2019 21:00:00 12,2 9,5 7 4 N 1020,3 40
10.09.2019 20:00:00 14,6 9,0 4 2 NNE 1019,2 40
10.09.2019 19:00:00 17,6 9,4 7 4 NE 1017,9 40
10.09.2019 18:00:00 18,5 9,5 7 4 NE 1017,6 40
10.09.2019 17:00:00 18,2 9,1 7 4 ENE 1017,3 40

tt = temperature
td = dewpoint
ff = wind speed
dd = wind direction
ppp = reduced air pressure
vv = visibility

Next stations